CDT,Max TemperatureF,Mean TemperatureF,Min TemperatureF,Max Dew PointF,MeanDew PointF,Min DewpointF,Max Humidity, Mean Humidity, Min Humidity, Max Sea Level PressureIn, Mean Sea Level PressureIn, Min Sea Level PressureIn, Max VisibilityMiles, Mean VisibilityMiles, Min VisibilityMiles, Max Wind SpeedMPH, Mean Wind SpeedMPH, Max Gust SpeedMPH,PrecipitationIn, CloudCover, Events, WindDirDegrees
2013-8-1,97,88,79,75,74,70,85,67,49,29.99,29.96,29.91,10,10,10,13,6,16,0.00,4,,159
2013-8-2,98,88,77,77,74,70,91,67,42,29.98,29.94,29.89,10,10,7,12,5,15,0.00,5,,140
2013-8-3,96,87,77,74,73,68,88,66,44,30.03,29.98,29.94,10,10,9,14,6,16,0.00,6,,175
2013-8-4,98,87,76,75,72,67,94,66,38,30.09,30.02,29.95,10,10,7,12,6,15,0.00,3,,164
2013-8-5,100,89,78,75,71,66,85,59,33,30.01,29.95,29.87,10,10,10,14,7,17,0.00,2,,193
2013-8-6,100,89,78,74,70,66,85,59,33,29.94,29.89,29.82,10,10,10,14,8,21,0.00,1,,191
2013-8-7,99,89,78,75,72,69,85,62,39,29.94,29.87,29.81,10,10,9,15,8,17,0.00,0,,181
2013-8-8,101,89,77,74,69,62,88,59,29,29.91,29.86,29.81,10,9,7,18,7,22,0.00,0,,178
2013-8-9,100,88,75,75,70,66,87,61,35,29.96,29.91,29.87,10,9,7,17,7,21,0.00,1,,172
2013-8-10,99,88,76,76,73,68,88,63,38,30.04,29.99,29.93,10,10,9,25,6,33,T,3,Rain-Thunderstorm,163
2013-8-11,98,85,72,74,70,68,87,63,38,30.08,30.03,29.97,10,10,10,17,5,22,0.00,4,,174
2013-8-12,99,87,75,75,71,66,94,66,38,30.07,30.01,29.93,10,10,10,14,6,24,0.00,3,,208
2013-8-13,99,87,75,75,73,70,94,68,42,30.00,29.95,29.91,10,10,3,23,7,32,0.08,7,Rain-Thunderstorm,246
2013-8-14,88,81,73,74,71,63,94,75,55,30.03,29.97,29.92,10,10,2,16,8,21,0.10,6,Rain,47
2013-8-15,90,79,67,62,59,55,73,54,34,30.06,30.01,29.95,10,10,10,14,7,20,0.00,5,,36
2013-8-16,89,77,64,61,59,57,84,62,40,30.05,30.00,29.97,10,10,10,14,7,20,0.00,3,,47
2013-8-17,90,77,64,66,61,55,87,61,34,30.05,30.01,29.96,10,10,10,16,7,22,0.00,0,,28
2013-8-18,93,81,68,67,64,60,90,63,36,30.06,30.02,29.97,10,10,7,15,5,21,0.00,1,,74
2013-8-19,94,82,69,69,64,56,90,60,30,30.08,30.02,29.95,10,10,7,12,4,16,0.00,2,,90
2013-8-20,95,81,66,69,64,60,87,60,33,30.05,30.01,29.96,10,10,10,13,4,20,0.00,4,,107
2013-8-21,97,84,71,71,68,63,93,65,36,30.11,30.04,29.99,10,10,10,10,4,15,0.00,4,,148
2013-8-22,99,86,73,73,69,64,87,61,35,30.09,30.02,29.94,10,10,10,14,4,16,0.00,2,,152
2013-8-23,99,86,73,72,69,66,82,59,35,30.02,29.97,29.90,10,10,10,17,4,21,0.00,3,Thunderstorm,89
2013-8-24,98,87,75,73,69,66,87,63,38,30.07,30.02,29.98,10,10,10,21,5,29,0.00,1,,108
2013-8-25,97,85,72,72,68,65,93,66,38,30.16,30.10,30.06,10,10,10,18,9,28,0.00,3,,120
2013-8-26,96,85,73,72,69,62,93,65,36,30.18,30.12,30.06,10,10,10,23,10,33,0.00,2,,128
2013-8-27,96,84,72,72,67,61,93,62,30,30.14,30.07,30.00,10,10,10,16,7,20,0.00,6,,154
2013-8-28,102,87,71,68,66,62,84,57,29,30.07,30.01,29.95,10,10,9,13,7,21,0.00,3,,101
2013-8-29,100,87,73,71,66,62,79,55,31,30.06,30.00,29.95,10,10,8,16,7,25,0.00,2,,119
2013-8-30,99,85,71,73,66,61,84,57,30,30.01,29.95,29.87,10,10,6,17,7,24,0.00,1,,138
2013-8-31,102,89,75,72,68,63,87,58,29,29.93,29.87,29.79,10,9,7,20,10,23,0.00,1,,170